Zurück zum Katalog

STARLINK-34755

AktivKommunikationSSO
NORAD 64940·PAYLOAD·🇺🇸 United States

Gestartet Jul 26, 2025 von Vandenberg Space Force Base

Loading…

Nächste Überflüge (nächste 24 Stunden)

TLE

AktuellSource: CelesTrak SupGP

Epoche: Sep 15, 2026, 03:37 UTC

1 64940C 25158J   26258.15118056  .02429700  00000+0  83043-1 0  2584
2 64940  97.2847 116.5114 0001465  85.5347 194.3135 15.29122622    18

Verfolge STARLINK-34755 in Echtzeit mit AllMySat

Download on the App Store